TimeCST,TemperatureF,Dew PointF,Humidity,Sea Level PressureIn,VisibilityMPH,Wind Direction,Wind SpeedMPH,Gust SpeedMPH,PrecipitationIn,Events,Conditions,WindDirDegrees,DateUTC
12:15 AM,18.9,-2.4,39,30.25,10.0,North,8.1,17.3,N/A,,Clear,360,2014-01-28 06:15:00
12:35 AM,18.5,-2.0,41,30.25,10.0,North,10.4,-,N/A,,Clear,360,2014-01-28 06:35:00
12:55 AM,18.5,-1.5,42,30.24,10.0,North,8.1,20.7,N/A,,Clear,360,2014-01-28 06:55:00
1:15 AM,18.3,-1.3,42,30.25,10.0,North,11.5,16.1,N/A,,Clear,10,2014-01-28 07:15:00
1:35 AM,18.3,-1.7,42,30.25,10.0,North,9.2,-,N/A,,Clear,360,2014-01-28 07:35:00
1:55 AM,18.1,-1.3,43,30.24,10.0,North,16.1,21.9,N/A,,Clear,10,2014-01-28 07:55:00
2:15 AM,17.6,-1.8,42,30.24,10.0,North,12.7,18.4,N/A,,Clear,360,2014-01-28 08:15:00
2:35 AM,17.6,-1.3,44,30.25,10.0,North,13.8,18.4,N/A,,Clear,360,2014-01-28 08:35:00
2:55 AM,17.2,-1.5,44,30.25,10.0,North,9.2,17.3,N/A,,Clear,360,2014-01-28 08:55:00
3:15 AM,16.9,-1.3,45,30.26,10.0,North,8.1,-,N/A,,Scattered Clouds,360,2014-01-28 09:15:00
3:35 AM,16.7,-1.1,46,30.25,10.0,North,10.4,17.3,N/A,,Mostly Cloudy,10,2014-01-28 09:35:00
3:55 AM,16.7,-1.3,45,30.26,10.0,North,12.7,17.3,N/A,,Mostly Cloudy,350,2014-01-28 09:55:00
4:15 AM,16.7,-1.7,44,30.27,10.0,North,8.1,16.1,N/A,,Overcast,350,2014-01-28 10:15:00
4:35 AM,16.7,-1.8,44,30.26,10.0,North,9.2,17.3,N/A,,Mostly Cloudy,360,2014-01-28 10:35:00
4:55 AM,16.7,-1.7,44,30.25,10.0,North,10.4,16.1,N/A,,Scattered Clouds,10,2014-01-28 10:55:00
5:15 AM,16.5,-1.3,46,30.26,10.0,North,9.2,17.3,N/A,,Scattered Clouds,10,2014-01-28 11:15:00
5:35 AM,16.5,-1.3,46,30.26,10.0,North,11.5,23.0,N/A,,Scattered Clouds,360,2014-01-28 11:35:00
5:55 AM,16.5,-1.1,46,30.27,10.0,North,9.2,16.1,N/A,,Clear,350,2014-01-28 11:55:00
6:15 AM,16.5,-0.8,47,30.27,10.0,North,8.1,17.3,N/A,,Clear,360,2014-01-28 12:15:00
6:35 AM,16.5,-0.8,47,30.27,10.0,North,5.8,16.1,N/A,,Clear,360,2014-01-28 12:35:00
6:55 AM,16.5,-0.4,47,30.28,10.0,North,9.2,19.6,N/A,,Clear,350,2014-01-28 12:55:00
7:15 AM,16.3,-0.4,48,30.28,10.0,NNW,8.1,17.3,N/A,,Clear,340,2014-01-28 13:15:00
7:35 AM,16.3,-0.4,48,30.30,10.0,North,11.5,16.1,N/A,,Clear,350,2014-01-28 13:35:00
7:55 AM,16.2,-0.6,48,30.30,10.0,North,8.1,-,N/A,,Scattered Clouds,360,2014-01-28 13:55:00
8:15 AM,16.0,-0.0,49,30.30,10.0,North,8.1,-,N/A,,Mostly Cloudy,350,2014-01-28 14:15:00
8:35 AM,15.6,1.8,54,30.30,5.0,North,8.1,-,N/A,Snow,Light Snow,10,2014-01-28 14:35:00
8:55 AM,14.9,4.8,64,30.31,1.8,North,5.8,-,N/A,Snow,Light Snow,360,2014-01-28 14:55:00
9:15 AM,14.4,7.5,74,30.30,3.0,North,10.4,-,N/A,Snow,Light Snow,10,2014-01-28 15:15:00
9:35 AM,14.4,8.1,76,30.33,2.5,North,11.5,17.3,N/A,Snow,Light Snow,350,2014-01-28 15:35:00
9:55 AM,14.5,8.6,77,30.32,5.0,North,11.5,17.3,N/A,Snow,Light Snow,350,2014-01-28 15:55:00
10:15 AM,14.5,7.9,75,30.31,10.0,North,10.4,17.3,N/A,,Overcast,360,2014-01-28 16:15:00
10:35 AM,14.9,7.5,73,30.33,10.0,NNW,8.1,17.3,N/A,,Overcast,340,2014-01-28 16:35:00
10:55 AM,15.3,7.2,70,30.33,10.0,North,6.9,16.1,N/A,,Mostly Cloudy,350,2014-01-28 16:55:00
11:15 AM,15.4,6.8,69,30.31,10.0,North,9.2,17.3,N/A,,Mostly Cloudy,360,2014-01-28 17:15:00
11:35 AM,15.6,7.0,69,30.31,10.0,North,6.9,-,N/A,,Scattered Clouds,350,2014-01-28 17:35:00
11:55 AM,15.6,7.0,69,30.30,10.0,North,8.1,-,N/A,,Scattered Clouds,360,2014-01-28 17:55:00
12:15 PM,16.0,6.8,67,30.29,10.0,North,9.2,-,N/A,,Scattered Clouds,360,2014-01-28 18:15:00
12:35 PM,16.2,7.3,68,30.29,10.0,NNW,13.8,-,N/A,,Clear,340,2014-01-28 18:35:00
12:55 PM,15.8,7.0,68,30.28,10.0,NNW,10.4,17.3,N/A,,Scattered Clouds,340,2014-01-28 18:55:00
1:15 PM,15.8,6.6,67,30.28,10.0,North,9.2,17.3,N/A,,Mostly Cloudy,10,2014-01-28 19:15:00
1:35 PM,16.2,7.0,67,30.27,10.0,North,9.2,-,N/A,,Mostly Cloudy,350,2014-01-28 19:35:00
1:55 PM,16.3,7.2,67,30.27,10.0,NNW,8.1,16.1,N/A,,Mostly Cloudy,340,2014-01-28 19:55:00
2:15 PM,16.3,7.5,68,30.27,10.0,NNW,8.1,-,N/A,,Overcast,340,2014-01-28 20:15:00
2:35 PM,16.5,7.9,69,30.26,10.0,North,9.2,-,N/A,,Overcast,350,2014-01-28 20:35:00
2:55 PM,16.7,8.2,69,30.26,10.0,North,10.4,16.1,N/A,,Overcast,350,2014-01-28 20:55:00
3:15 PM,16.7,7.9,68,30.27,10.0,North,12.7,16.1,N/A,,Mostly Cloudy,350,2014-01-28 21:15:00
3:35 PM,16.5,7.3,67,30.27,10.0,NNW,9.2,-,N/A,,Mostly Cloudy,340,2014-01-28 21:35:00
3:55 PM,16.7,6.8,65,30.27,10.0,NNW,6.9,-,N/A,,Overcast,340,2014-01-28 21:55:00
4:15 PM,16.7,5.7,62,30.27,10.0,North,5.8,9.2,N/A,,Overcast,350,2014-01-28 22:15:00
4:35 PM,16.9,5.2,60,30.27,10.0,NNW,8.1,-,N/A,,Mostly Cloudy,340,2014-01-28 22:35:00
4:55 PM,17.1,4.5,58,30.26,10.0,North,9.2,-,N/A,,Overcast,350,2014-01-28 22:55:00
5:15 PM,17.1,3.7,56,30.27,10.0,North,10.4,16.1,N/A,,Mostly Cloudy,350,2014-01-28 23:15:00
5:35 PM,17.1,3.2,55,30.27,10.0,North,5.8,-,N/A,,Mostly Cloudy,350,2014-01-28 23:35:00
5:55 PM,17.1,2.8,54,30.27,10.0,North,8.1,-,N/A,,Overcast,350,2014-01-28 23:55:00
6:15 PM,17.1,2.3,52,30.28,10.0,North,8.1,-,N/A,,Mostly Cloudy,360,2014-01-29 00:15:00
6:35 PM,17.2,1.9,51,30.28,10.0,NNW,6.9,-,N/A,,Scattered Clouds,340,2014-01-29 00:35:00
6:55 PM,17.2,1.8,51,30.28,10.0,North,6.9,-,N/A,,Scattered Clouds,350,2014-01-29 00:55:00
7:15 PM,17.4,1.9,51,30.29,10.0,NNW,5.8,-,N/A,,Mostly Cloudy,340,2014-01-29 01:15:00
7:35 PM,17.4,1.8,50,30.31,10.0,NNW,10.4,-,N/A,,Mostly Cloudy,340,2014-01-29 01:35:00
7:55 PM,16.9,1.2,50,30.31,10.0,North,8.1,-,N/A,,Mostly Cloudy,350,2014-01-29 01:55:00
8:15 PM,16.2,0.3,50,30.31,10.0,North,10.4,-,N/A,,Scattered Clouds,350,2014-01-29 02:15:00
8:35 PM,15.3,-0.4,50,30.33,10.0,North,5.8,-,N/A,,Clear,350,2014-01-29 02:35:00
8:55 PM,14.5,-0.6,51,30.33,10.0,North,10.4,-,N/A,,Clear,360,2014-01-29 02:55:00
9:15 PM,14.0,-0.8,52,30.34,10.0,North,8.1,-,N/A,,Clear,350,2014-01-29 03:15:00
9:35 PM,13.5,-0.8,53,30.34,10.0,North,8.1,-,N/A,,Clear,350,2014-01-29 03:35:00
9:55 PM,13.1,-0.6,54,30.35,10.0,North,5.8,-,N/A,,Clear,350,2014-01-29 03:55:00
10:15 PM,12.9,-0.4,55,30.36,10.0,NNW,5.8,-,N/A,,Clear,340,2014-01-29 04:15:00
10:35 PM,12.6,-0.4,56,30.35,10.0,North,6.9,-,N/A,,Clear,350,2014-01-29 04:35:00
10:55 PM,12.4,-0.6,56,30.34,10.0,North,5.8,-,N/A,,Clear,350,2014-01-29 04:55:00
11:15 PM,12.2,-0.8,56,30.33,10.0,NNW,3.5,-,N/A,,Clear,340,2014-01-29 05:15:00
11:35 PM,12.2,-0.8,56,30.34,10.0,North,5.8,-,N/A,,Clear,350,2014-01-29 05:35:00
11:55 PM,12.2,-1.3,55,30.35,10.0,NNW,5.8,-,N/A,,Clear,340,2014-01-29 05:55:00